HST
1 20580U 90037B 24291.93017749 .00011841 00000-0 52040-3 0 9991
2 20580 28.4688 241.3873 0002685 296.9368 63.0951 15.20311841695713
ISS (ZARYA)
1 25544U 98067A 24292.38232888 -.00009603 00000-0 -16007-3 0 9998
2 25544 51.6391 65.1974 0009419 81.9286 4.5244 15.50003490477651
CXO
1 25867U 99040B 24292.14899531 .00000890 00000-0 00000-0 0 9996
2 25867 43.8911 143.9268 8763916 302.7950 0.4259 0.37813126 15024